Wind_Speed
15 15 12 12 13 13 12 11 10 10 10 9 9 9 10 11 12 11 7 6 5 4 4 5 4 3 1 1 2 3 3 2 3 2 2 3 4 5 5 6 6 7
15 14 13 12 14 13 12 11 10 10 10 10 10 11 11 11 12 11 7 5 5 4 4 5 5 3 1 2 3 3 3 3 4 4 3 3 4 5 6 7 7 7
14 13 13 13 14 14 11 10 10 10 11 11 11 12 11 11 12 12 8 5 4 4 4 5 4 2 2 3 3 4 4 4 5 5 4 4 5 5 6 8 8 9
14 13 14 15 16 14 8 7 9 9 10 11 11 11 10 11 13 12 8 6 5 4 4 5 4 2 2 3 4 4 4 4 4 4 4 4 5 6 7 8 9 10
15 14 17 17 14 11 6 6 8 8 10 11 11 10 9 11 13 11 8 5 5 4 4 4 4 3 2 3 3 4 4 4 4 4 4 4 5 6 7 8 8 9
17 17 17 14 11 9 6 6 7 7 9 10 10 9 9 11 12 9 6 5 4 4 4 4 3 2 3 3 3 4 4 4 4 5 4 4 5 6 7 7 7 8
15 15 13 10 10 9 5 5 6 6 8 8 8 9 10 12 12 9 6 4 4 4 4 3 3 2 2 3 3 3 4 4 5 5 4 5 5 6 6 6 7 8
13 13 13 10 8 5 4 5 6 6 6 7 8 9 11 13 12 9 6 3 3 4 4 3 2 2 2 1 2 4 4 5 5 4 4 5 5 6 5 5 6 8
13 14 15 9 4 4 4 5 6 6 6 7 8 10 12 13 11 8 6 3 2 3 2 2 2 2 2 1 2 4 4 4 4 4 4 4 3 3 3 4 6 8
13 14 12 6 3 5 5 4 5 6 7 8 9 11 13 12 8 6 5 3 2 1 1 1 2 1 1 1 2 3 4 4 4 3 4 5 3 3 3 5 7 8
13 11 6 5 6 6 4 4 5 6 7 9 11 13 13 10 6 5 4 2 2 2 1 1 1 1 0 1 1 2 2 3 3 2 4 7 5 5 5 6 7 7
10 6 4 6 6 4 3 4 5 6 8 10 12 13 12 8 6 5 3 2 2 2 1 1 2 2 2 1 1 1 1 1 2 3 4 6 6 6 6 7 7 7
7 5 6 6 4 3 4 4 5 7 9 11 12 11 9 7 5 5 3 2 1 1 2 3 3 3 2 1 0 1 1 2 2 3 4 6 7 7 7 7 6 6
6 6 5 3 2 3 4 4 5 7 9 11 11 9 7 5 4 4 2 1 1 2 3 3 3 3 3 2 2 2 2 4 4 3 3 5 7 6 7 7 6 6
6 4 3 2 3 2 2 4 6 7 8 9 9 7 6 5 4 4 3 1 1 3 4 4 5 4 4 4 3 3 4 6 5 4 3 4 5 6 8 7 7 7
4 2 3 3 2 0 3 5 7 8 8 8 7 6 5 4 3 3 2 2 1 2 4 6 7 6 4 4 4 4 5 6 5 4 3 4 5 7 8 7 7 7
4 4 5 4 1 2 5 7 7 8 7 6 5 4 4 4 2 1 1 2 2 2 3 5 7 6 5 4 4 4 5 6 5 4 3 4 5 6 7 7 7 7
6 6 5 2 1 4 7 8 8 7 5 4 4 4 4 4 2 1 1 2 3 3 3 6 7 6 4 4 4 4 5 5 5 4 4 4 5 6 7 7 6 6
6 5 3 0 3 5 8 9 8 6 4 4 4 3 3 3 2 1 1 2 4 4 4 6 7 6 5 4 4 4 4 4 4 4 4 4 5 6 7 7 7 6
6 4 1 2 5 7 9 10 7 4 2 4 4 3 3 3 1 1 1 1 3 5 5 7 7 7 6 5 4 3 3 3 3 4 5 4 4 5 6 7 7 7
5 2 2 4 7 10 11 9 5 2 2 4 4 4 4 3 2 1 1 1 3 5 6 6 7 6 5 4 3 3 3 2 2 4 4 4 4 4 6 7 7 7
4 3 4 7 9 11 11 8 4 2 3 4 5 5 4 3 2 2 2 1 3 6 6 5 6 6 5 4 3 2 3 2 2 3 3 4 4 5 5 7 7 7
5 4 5 8 10 12 11 7 2 2 3 4 5 5 4 3 3 3 2 2 3 6 7 6 6 6 5 3 3 3 2 2 1 1 3 4 5 5 5 6 7 7
5 3 4 8 11 12 10 5 2 2 3 4 5 5 4 3 3 3 3 3 2 5 8 8 7 6 5 4 4 3 2 2 1 1 2 3 5 5 6 6 7 7
4 2 4 8 11 12 10 5 2 2 3 4 5 5 4 4 4 4 3 3 3 4 7 9 8 7 6 6 5 4 3 2 1 2 2 3 5 6 7 7 8 8
3 1 4 7 10 12 11 7 4 3 2 4 5 5 5 5 5 5 4 4 4 5 8 9 9 8 7 6 5 4 3 2 2 3 3 4 5 7 8 9 9 9
Wind_Direction
256 246 242 244 247 251 259 266 273 275 278 286 289 289 293 300 314 322 301 262 250 243 248 250 242 231 236 292 302 317 337 323 301 305 328 350 0 3 359 358 356 348
258 251 243 242 244 246 254 265 272 276 285 292 290 291 293 296 312 324 309 270 256 249 254 254 240 231 250 281 290 299 300 285 285 297 316 340 348 350 345 343 343 341
253 247 241 238 239 240 247 262 272 281 290 291 289 292 295 301 319 329 318 285 257 245 258 260 246 241 267 277 282 285 286 284 289 300 317 336 343 342 339 338 336 334
251 245 242 236 236 239 244 260 271 281 284 284 288 292 296 310 325 329 318 291 260 239 246 255 247 245 266 275 279 281 285 289 293 303 317 335 340 338 336 336 334 331
249 248 246 239 239 248 256 263 268 275 278 280 287 290 298 317 326 322 307 283 257 239 238 246 248 256 268 268 271 277 284 289 298 309 321 334 335 332 332 334 333 332
249 249 252 249 252 261 256 257 269 274 277 281 288 294 305 316 319 313 298 275 252 240 231 234 244 260 270 265 264 271 278 290 305 316 326 338 333 330 333 333 331 332
247 249 260 257 257 260 238 248 273 270 271 282 291 299 308 314 317 313 299 283 267 257 239 229 233 243 258 261 263 271 279 291 308 323 340 349 335 327 334 334 330 334
240 245 257 253 248 248 222 250 270 257 264 287 297 304 310 314 316 308 294 284 263 255 246 234 226 225 240 240 255 274 289 301 314 331 355 1 336 323 329 330 331 339
230 233 250 258 248 231 226 249 261 261 284 304 304 306 308 309 309 299 292 285 243 234 232 225 210 221 240 221 243 274 292 305 317 336 14 25 349 321 335 340 341 347
221 222 243 267 245 232 235 245 261 282 305 310 304 303 304 306 304 294 295 305 294 300 285 232 203 204 253 229 246 284 300 309 319 347 48 58 25 348 2 356 353 353
225 226 246 256 238 241 246 251 274 296 304 302 300 302 305 307 305 298 308 325 309 307 299 246 197 166 243 250 269 299 311 316 324 4 73 77 48 12 10 7 1 356
230 233 237 234 239 255 258 263 283 292 294 297 300 304 308 309 306 303 298 271 274 281 252 228 189 168 170 162 293 301 328 349 4 16 47 70 56 23 16 15 4 353
220 215 218 227 243 257 257 269 281 286 293 298 302 305 306 304 301 296 280 258 292 286 225 209 173 157 148 119 192 236 140 94 85 49 26 49 54 34 24 18 360 354
208 210 217 229 224 225 253 276 282 288 295 300 304 305 301 298 295 287 283 271 219 210 202 179 138 139 145 139 185 200 131 104 103 88 44 52 63 52 36 20 1 7
212 220 221 208 192 205 288 306 298 299 304 305 307 303 298 300 297 294 316 21 176 176 156 144 144 152 153 151 173 168 117 103 104 99 72 64 67 57 45 30 14 19
214 208 181 172 168 38 349 334 316 311 314 311 305 301 302 303 299 305 342 37 87 119 126 143 151 150 148 151 159 142 113 106 110 110 93 71 60 49 44 42 31 22
188 171 163 160 132 24 5 348 329 319 319 310 298 297 301 301 305 316 355 58 66 82 120 140 140 135 139 146 144 127 108 101 106 114 109 83 62 45 36 43 49 33
161 160 163 162 49 17 1 351 340 328 319 302 287 286 291 296 315 350 13 73 90 107 142 148 140 131 131 128 120 113 99 92 98 110 111 88 60 43 29 31 49 46
155 162 169 4 7 6 358 352 344 332 315 291 280 276 280 284 303 1 9 79 114 129 144 147 139 128 117 108 111 112 98 88 89 95 97 82 50 38 26 18 31 38
157 162 128 4 356 356 352 347 340 328 295 273 269 266 262 263 275 351 348 94 122 131 140 143 139 129 113 104 109 115 109 97 87 81 78 70 48 29 17 6 12 21
149 130 29 360 351 348 346 344 339 311 259 246 249 252 250 254 258 234 229 164 128 140 150 147 140 133 119 109 112 124 133 120 85 71 61 57 50 30 8 348 349 1
126 81 20 359 352 346 346 347 334 269 231 226 234 242 247 252 248 236 242 216 143 153 168 163 149 146 136 122 124 150 160 146 85 60 43 33 30 23 359 334 336 348
112 79 25 5 358 350 348 348 323 249 224 222 228 236 245 248 245 252 264 254 171 166 178 182 170 163 158 151 160 176 176 166 131 38 20 12 6 3 345 331 336 345
122 90 29 14 6 357 352 352 323 257 233 229 229 235 245 242 240 251 256 254 224 180 177 182 183 180 179 182 184 186 193 199 205 354 359 355 348 345 339 337 342 347
138 100 29 17 10 4 360 357 332 275 241 238 237 236 239 240 240 242 238 240 235 192 178 182 189 190 190 195 197 194 204 233 291 332 341 342 340 339 340 343 350 352
158 86 20 9 7 5 4 359 334 303 270 250 244 238 235 239 241 240 235 224 206 189 186 189 193 196 198 203 208 203 205 256 306 322 334 341 340 339 341 344 349 350
Height
3184 3183 3184 3184 3185 3184 3184 3184 3184 3184 3183 3183 3182 3181 3180 3179 3178 3177 3176 3175 3175 3175 3175 3175 3175 3175 3175 3175 3175 3175 3175 3175 3174 3174 3174 3173 3172 3172 3171 3171 3171 3170
3183 3183 3182 3182 3183 3182 3182 3182 3182 3182 3182 3181 3181 3180 3179 3178 3177 3176 3175 3174 3174 3174 3174 3174 3174 3174 3174 3174 3174 3174 3174 3174 3173 3173 3173 3172 3171 3171 3170 3170 3170 3169
3181 3181 3181 3180 3180 3179 3179 3180 3180 3180 3180 3180 3179 3178 3177 3177 3176 3175 3173 3173 3172 3173 3173 3173 3173 3173 3173 3173 3173 3173 3173 3173 3172 3172 3172 3171 3170 3170 3170 3169 3169 3168
3180 3180 3178 3178 3178 3176 3177 3178 3178 3179 3179 3178 3178 3177 3176 3175 3175 3174 3173 3172 3172 3172 3172 3172 3172 3172 3172 3172 3172 3172 3172 3172 3172 3171 3170 3170 3169 3169 3169 3169 3168 3168
3179 3177 3176 3176 3177 3176 3176 3177 3177 3177 3177 3176 3176 3176 3175 3175 3174 3173 3172 3171 3171 3171 3171 3171 3171 3171 3171 3171 3171 3171 3171 3170 3170 3170 3169 3169 3168 3168 3168 3168 3168 3167
3177 3175 3174 3175 3176 3176 3175 3175 3176 3176 3175 3175 3174 3174 3174 3174 3173 3172 3171 3170 3170 3170 3170 3170 3170 3170 3170 3170 3170 3170 3169 3169 3169 3169 3169 3168 3168 3168 3168 3168 3168 3167
3175 3174 3173 3175 3175 3174 3174 3174 3176 3175 3174 3173 3173 3173 3173 3173 3172 3171 3170 3169 3169 3169 3169 3169 3169 3169 3169 3170 3169 3169 3168 3168 3169 3169 3169 3168 3168 3167 3167 3167 3167 3166
3174 3173 3172 3173 3172 3172 3173 3174 3175 3174 3173 3173 3173 3172 3172 3172 3171 3170 3169 3169 3169 3168 3168 3168 3169 3169 3169 3169 3168 3168 3168 3168 3168 3169 3168 3168 3167 3167 3167 3167 3166 3165
3171 3170 3169 3170 3171 3171 3173 3174 3174 3173 3172 3173 3172 3171 3171 3171 3171 3169 3168 3168 3168 3168 3168 3168 3168 3168 3168 3168 3168 3167 3167 3167 3168 3168 3167 3167 3167 3166 3167 3166 3166 3165
3168 3167 3167 3168 3170 3170 3172 3173 3172 3171 3171 3171 3171 3170 3170 3170 3170 3169 3168 3167 3167 3167 3167 3167 3167 3167 3167 3167 3167 3167 3167 3167 3167 3167 3167 3167 3166 3166 3166 3166 3165 3165
3165 3165 3166 3168 3169 3170 3171 3172 3171 3171 3171 3170 3170 3169 3169 3169 3168 3167 3167 3166 3166 3166 3166 3166 3166 3166 3166 3166 3166 3167 3166 3166 3166 3166 3167 3167 3166 3166 3166 3166 3165 3165
3163 3165 3167 3168 3169 3170 3170 3170 3170 3170 3170 3170 3169 3168 3167 3167 3167 3166 3166 3166 3166 3166 3166 3166 3166 3166 3166 3166 3166 3166 3166 3166 3166 3166 3166 3167 3167 3166 3166 3165 3165 3164
3164 3165 3167 3168 3168 3169 3169 3170 3170 3170 3169 3168 3168 3167 3166 3166 3166 3166 3165 3166 3165 3165 3165 3165 3165 3166 3166 3166 3166 3166 3166 3166 3166 3166 3166 3167 3167 3166 3166 3165 3165 3164
3164 3165 3166 3167 3168 3168 3169 3169 3169 3169 3168 3167 3166 3166 3165 3165 3165 3165 3165 3165 3165 3165 3165 3165 3165 3165 3166 3166 3166 3167 3166 3166 3166 3166 3167 3167 3167 3166 3165 3165 3165 3164
3164 3165 3166 3167 3167 3168 3168 3168 3168 3167 3166 3166 3165 3164 3164 3164 3164 3164 3164 3165 3165 3165 3165 3165 3165 3165 3166 3166 3166 3166 3166 3166 3166 3166 3167 3167 3167 3166 3165 3165 3164 3163
3163 3164 3165 3166 3167 3167 3167 3166 3166 3165 3165 3164 3164 3163 3163 3163 3163 3164 3164 3164 3164 3164 3164 3164 3165 3166 3166 3166 3166 3166 3166 3166 3166 3166 3167 3166 3166 3165 3165 3165 3164 3163
3163 3163 3165 3166 3167 3167 3166 3165 3164 3164 3163 3163 3163 3163 3162 3162 3163 3163 3163 3164 3163 3163 3163 3164 3164 3165 3166 3166 3166 3166 3166 3166 3166 3166 3166 3166 3165 3165 3165 3165 3164 3163
3163 3164 3165 3166 3166 3166 3165 3164 3163 3162 3162 3162 3162 3162 3162 3162 3162 3163 3163 3163 3163 3163 3163 3163 3164 3165 3165 3166 3165 3165 3165 3165 3165 3166 3166 3165 3165 3164 3164 3164 3164 3163
3163 3164 3164 3165 3165 3164 3163 3162 3162 3161 3161 3161 3161 3161 3161 3161 3161 3162 3162 3162 3162 3163 3163 3163 3164 3165 3165 3165 3165 3165 3165 3165 3165 3165 3165 3165 3164 3164 3164 3164 3163 3163
3163 3164 3164 3164 3163 3163 3162 3161 3160 3160 3160 3160 3160 3160 3161 3161 3161 3161 3161 3161 3162 3162 3163 3163 3164 3164 3164 3165 3165 3165 3165 3165 3165 3165 3164 3164 3164 3163 3163 3163 3163 3162
3163 3164 3163 3163 3162 3161 3160 3160 3159 3159 3159 3159 3159 3160 3160 3160 3160 3160 3161 3161 3161 3161 3162 3163 3163 3164 3164 3164 3165 3165 3165 3165 3164 3164 3163 3163 3163 3163 3163 3162 3162 3162
3163 3163 3163 3162 3161 3160 3159 3158 3158 3158 3158 3159 3159 3159 3159 3159 3159 3160 3160 3160 3161 3161 3161 3162 3163 3163 3164 3164 3164 3164 3165 3164 3164 3163 3163 3163 3163 3162 3162 3162 3161 3161
3162 3163 3162 3161 3160 3159 3158 3158 3158 3158 3158 3158 3158 3158 3158 3158 3159 3159 3159 3160 3160 3160 3161 3162 3162 3162 3163 3163 3163 3164 3164 3164 3163 3163 3162 3162 3162 3162 3161 3161 3161 3160
3162 3162 3162 3161 3160 3159 3158 3158 3157 3157 3157 3157 3157 3157 3158 3158 3158 3159 3159 3159 3159 3160 3160 3161 3161 3162 3162 3162 3162 3163 3163 3163 3162 3162 3162 3161 3161 3161 3161 3160 3160 3159
3162 3162 3161 3161 3160 3159 3158 3157 3157 3157 3157 3157 3157 3157 3157 3157 3158 3158 3158 3158 3158 3159 3159 3160 3160 3161 3161 3161 3161 3161 3162 3162 3161 3161 3161 3161 3161 3160 3160 3159 3159 3158
3161 3161 3161 3160 3160 3159 3158 3157 3157 3156 3156 3156 3156 3156 3157 3157 3157 3157 3158 3158 3158 3158 3158 3159 3159 3159 3160 3160 3160 3160 3160 3161 3161 3161 3161 3160 3160 3160 3159 3159 3158 3157